Regional Weather Roundup
Issued by NWS

Home | Current Version | Previous Version | Graphics & Text | Print | Product List | Glossary On
Versions: 1 2 3 4 5 6 7 8 9 10 11 12 13 14 15 16 17 18 19 20 21 22 23 24 25 26 27 28 29 30 31 32 33 34 35 36 37 38 39 40 41 42 43 44 45 46 47 48 49 50
000
ASUS43 KIND 180809
RWRIN

WEATHER ROUNDUP FOR INDIANA
NATIONAL WEATHER SERVICE INDIANAPOLIS IN
300 AM EST THU DEC 18 2014

NOTE: "FAIR" INDICATES FEW OR NO CLOUDS BELOW 12,000 FEET WITH NO
SIGNIFICANT WEATHER AND/OR OBSTRUCTIONS TO VISIBILITY.

* - STATION DOES NOT REPORT WEATHER SUCH AS PRECIPITATION OR FOG.

+ - STATION NOT QUALITY CONTROLLED BY THE NATIONAL WEATHER SERVICE.
    USE DATA WITH CAUTION...ESPECIALLY DEWPOINT AND RELATIVE
    HUMIDITY OBSERVATIONS.

INZ001>003-010>013-019-020-180900-
NORTHWEST INDIANA

CITY           SKY/WX    TMP DP  RH WIND       PRES   REMARKS
GARY /AIRPORT/ CLOUDY    27  18  68 W7        30.30R WCI  20
KNOX *+        CLOUDY    26  19  77 W6        30.27R WCI  19
LA PORTE +     CLOUDY    28  21  77 SW6       30.27S WCI  21
MICHIGAN CITY+ CLOUDY    28  19  69 W3        30.27S
MONTICELLO +   CLOUDY    25  19  78 CALM      30.29R
RENSSELAER +   CLOUDY    27  21  80 NW3       30.29S
VALPARAISO     CLOUDY    24  17  74 W5        30.28R WCI  18

$$

LMZ046-743>745-180900-
SOUTHERN LAKE MICHIGAN

STATION/POSITION TIME  TEMP WIND        PRES
                       AIR  DIR/SP/G
                 (UTC) (F)  (DEG/KT/KT) (MB)

$$

INZ004-005-014>016-021>024-180900-
NORTH CENTRAL INDIANA

CITY           SKY/WX    TMP DP  RH WIND       PRES   REMARKS
GOSHEN         CLOUDY    27  21  78 W7        30.24S WCI  19
LOGANSPORT +   CLOUDY    27  19  74 W5        30.29S WCI  21
PERU/GRISSOM   CLOUDY    25  24  94 W5        30.27R WCI  20
ROCHESTER +    MOCLDY    28  23  80 W7        30.28R WCI  21
SOUTH BEND     CLOUDY    28  21  75 NW7       30.26R WCI  21
WARSAW +       CLOUDY    27  21  80 W8        30.26R WCI  18

$$

INZ006>009-017-018-025>027-180900-
NORTHEAST INDIANA

CITY           SKY/WX    TMP DP  RH WIND       PRES   REMARKS
ANGOLA *+      CLOUDY    27  21  80 VRB7      30.21S WCI  19
AUBURN +       CLOUDY    28  21  74 W5        30.25R WCI  23
FORT WAYNE     CLOUDY    27  21  78 W6        30.26R WCI  20
HUNTINGTON +   CLOUDY    26  21  82 W5        30.27R WCI  20

$$

INZ028-029-035-036-043>045-051>053-180900-
WEST CENTRAL INDIANA

CITY           SKY/WX    TMP DP  RH WIND       PRES   REMARKS
GREENCASTLE +  CLOUDY    25  16  68 CALM      30.29S
LAFAYETTE      CLOUDY    25  17  72 CALM      30.30S
TERRE HAUTE    CLOUDY    25  19  78 NE5       30.32R WCI  19

$$

INZ030>032-037>040-046>048-054>057-064-065-180900-
CENTRAL INDIANA

CITY           SKY/WX    TMP DP  RH WIND       PRES   REMARKS
CP ATTERBURY + CLOUDY    27  21  80 MISG      30.30S
FRANKFORT +    CLOUDY    25  20  79 W5        30.29S WCI  20
INDIANAPOLIS   CLOUDY    24  18  77 N6        30.28R WCI  17
-EAGLE CREEK   CLOUDY    25  19  78 NW5       30.28R WCI  19
KOKOMO *+      CLOUDY    27  18  69 W6        30.28R WCI  20
MARION +       CLOUDY    25  22  87 W5        30.28R WCI  19
MT COMFORT *+  CLOUDY    25  14  63 CALM      30.29R
SHELBYVILLE    CLOUDY    27  18  69 N3        30.29R
ZIONSVILLE +   CLOUDY    25  17  72 CALM      30.28S

$$

INZ033-034-041-042-049-050-058-059-180900-
EAST CENTRAL INDIANA

CITY           SKY/WX    TMP DP  RH WIND       PRES   REMARKS
MUNCIE         CLOUDY    26  19  74 SW3       30.27R

$$

INZ060-061-067>069-081>083-085>088-180900-
SOUTHWEST INDIANA

CITY           SKY/WX    TMP DP  RH WIND       PRES   REMARKS
EVANSVILLE     CLOUDY    31  24  75 N3        30.33R
HUNTINGBURG *+ CLOUDY    28  21  74 N3        30.31R
WASHINGTON +   CLOUDY    26  19  74 N5        30.31R WCI  20

$$

INZ062-063-066-070>080-084-089>092-180900-
SOUTH CENTRAL AND SOUTHEAST INDIANA

CITY           SKY/WX    TMP DP  RH WIND       PRES   REMARKS
BLOOMINGTON    CLOUDY    25  20  81 NE5       30.29R WCI  19
SEYMOUR +      CLOUDY    28  21  74 N5        30.31R WCI  23

$$




USA.gov is the U.S. government's official web portal to all federal, state and local government web resources and services.